Location: Newark
(7.0858°N, 171.3717°E)
Time: 03:20:49
(UTC+00:00)

Vanguard 2 - Pass Details

Date: 29 November 2020
Orbit: 553 x 2937 km, 32.9° (Epoch: 26 January)

Event Time Altitude Azimuth Distance (km) Brightness Sun altitude
Rises 20:10:05 0° 251° (WSW) 5,663 11.6 21.7°
Reaches altitude 10° 20:14:43 10° 258° (WSW) 4,252 10.9 22.7°
Maximum altitude 20:24:22 39° 323° (NW) 1,835 9.3 24.8°
Drops below altitude 10° 20:30:24 10° 31° (NNE) 2,655 10.4 26.2°
Sets 20:32:40 0° 40° (NE) 3,372 11.0 26.6°
